Regional Weather Roundup
Issued by NWS

Home | Current Version | Previous Version | Graphics & Text | Print | Product List | Glossary On
Versions: 1 2 3 4 5 6 7 8 9 10 11 12 13 14 15 16 17 18 19 20 21 22 23 24 25 26 27 28 29 30 31 32 33 34 35 36 37 38 39 40 41 42 43 44 45 46 47 48 49 50
000
ASUS43 KMKX 050711
RWRWI

WISCONSIN REGIONAL WEATHER ROUNDUP
NATIONAL WEATHER SERVICE MILWAUKEE/SULLIVAN WI
200 AM CDT TUE MAY 05 2015

NOTE: "FAIR" INDICATES FEW OR NO CLOUDS BELOW 12,000 FEET WITH NO
SIGNIFICANT WEATHER AND/OR OBSTRUCTIONS TO VISIBILITY.

WIZ001-002-006>008-014>016-023>028-050800-
NORTHWEST WISCONSIN

CITY           SKY/WX    TMP DP  RH WIND       PRES   REMARKS
SUPERIOR ARPT  CLEAR     35  30  83 NW3       30.26R
ASHLAND        CLEAR     35  33  92 W3        30.27R
HAYWARD        CLEAR     37  31  78 CALM      30.26R
SIREN          FAIR      36  29  77 CALM      30.25R
CUMBERLAND     CLEAR     45  28  53 CALM      30.25R
RICE LAKE      CLEAR     40  31  70 N3        30.26R
CHETEK         CLEAR     53  26  35 NE6       30.24S
LADYSMITH      CLEAR     50  24  36 E6        30.28R
EAU CLAIRE     PTCLDY    48  34  58 NE6       30.21S
MENOMONIE      PTCLDY    50  34  53 NW3       30.22R
NEW RICHMOND   CLEAR     48  29  49 NE6       30.22S
OSCEOLA        CLEAR     41  37  83 NE3       30.24F
$$

WIZ003>005-009-010-017-018-050800-
NORTH CENTRAL WISCONSIN

CITY           SKY/WX    TMP DP  RH WIND       PRES   REMARKS
MANITOWISH WTR CLEAR     37  33  85 CALM      30.28R
ARBOR VITAE    CLEAR     42  32  68 SE3       30.28R
WOODRUFF       CLEAR     42  32  68 SE3       30.28R
RHINELANDER    CLEAR     47  37  68 CALM      30.30R
EAGLE RIVER    CLEAR     37  31  78 SE3       30.29R
LAND O LAKES   CLEAR     33  32  96 CALM      30.30R
PHILLIPS       FAIR      43  25  48 CALM      30.27R
TOMAHAWK       CLEAR     37  32  84 CALM      30.29R
MEDFORD        PTCLDY    45  37  76 E7        30.26S
MERRILL        PTCLDY    45  39  80 E5        30.28R
$$

WIZ029-030-035-036-043>047-050800-
CENTRAL WISCONSIN

CITY           SKY/WX    TMP DP  RH WIND       PRES   REMARKS
WAUSAU         MOCLDY    49  38  65 E6        30.26R
MOSINEE        MOCLDY    45  37  76 E7        30.27R
MARSHFIELD     CLOUDY    50  39  66 E8        30.24R
STEVENS POINT  CLOUDY    48  38  68 NE6       30.26R
WAUPACA        CLOUDY    52  39  61 CALM      30.26R
WAUTOMA        CLOUDY    52  40  63 NE6       30.24S
WISC RAPIDS    CLOUDY    52  38  58 E8        30.25R
CAMP DOUGLAS   CLOUDY    54  44  71 E7        30.20S
$$

WIZ011>013-019>022-031-037>040-048>050-050800-
NORTHEAST WISCONSIN

CITY           SKY/WX    TMP DP  RH WIND       PRES   REMARKS
ANTIGO         PTCLDY    46  35  64 NE5       30.29R
SHAWANO        MOCLDY    52  37  57 E8        30.28R
OCONTO         CLOUDY    48  38  68 CALM      30.28R
STURGEON BAY   CLOUDY    46  32  57 NE7       30.30R
GREEN BAY      CLOUDY    51  37  58 NE9       30.26R
MANITOWOC      CLOUDY    48  36  63 NE7       30.25S
APPLETON       CLOUDY    50  32  50 NE7       30.25S
CLINTONVILLE   CLOUDY    46  37  71 CALM      30.26S
OSHKOSH        CLOUDY    54  32  43 E5        30.23S
$$

WIZ032>034-041-042-053>061-050800-
SOUTHWEST WISCONSIN

CITY           SKY/WX    TMP DP  RH WIND       PRES   REMARKS
LA CROSSE      CLOUDY    55  46  71 N3        30.16F
SPARTA         CLOUDY    51  43  73 E6        30.19F
VIROQUA        CLOUDY    56  45  64 E7        30.17F
BOSCOBEL       RAIN      59  44  57 CALM      30.17R
PRAIRIE DU CHI LGT RAIN  59  52  78 E8        30.14S
PLATTEVILLE    CLOUDY    53  49  88 E8        30.16R
$$

WIZ056-057-062-063-064-067-068-050800-
SOUTH CENTRAL WISCONSIN

CITY           SKY/WX    TMP DP  RH WIND       PRES   REMARKS
REEDSBURG      CLOUDY    56  39  52 E8        30.19S
BARABOO/DELLS    N/A     55  38  52 E7        30.21R
LONE ROCK      LGT RAIN  59  42  53 E8        30.17F
MINERAL POINT  LGT RAIN  55  43  62 E8        30.17S
MADISON        CLOUDY    57  38  48 SE7       30.19S
MIDDLETON      CLOUDY    59  36  41 E6        30.19F
WATERTOWN      CLOUDY    56  37  50 E6        30.19F
MONROE         DRIZZLE   50  45  81 E10       30.15F
JANESVILLE     RAIN      52  45  76 E6        30.17F
$$

WIZ051-052-058>065-066-070>072-050800-
SOUTHEAST WISCONSIN

CITY           SKY/WX    TMP DP  RH WIND       PRES   REMARKS
MILWAUKEE      CLOUDY    52  34  50 N7        30.20F
WAUKESHA       CLOUDY    52  34  50 NE7       30.21S
MILWAUKEE/TIMM CLOUDY    52  32  46 NE5       30.22S
RACINE         CLOUDY    51  36  56 N5        30.22S
BURLINGTON     CLOUDY    51  41  68 CALM      30.19F
KENOSHA        CLOUDY    51  40  65 W3        30.21R
FOND DU LAC    CLOUDY    53  31  42 NE8       30.22F
SHEBOYGAN      CLOUDY    46  36  68 NE6       30.23S
WEST BEND      CLOUDY    50  34  53 NE3       30.23S
JUNEAU         CLOUDY    55  36  49 NE6       30.22S
$$

LSZ147-162-050800-
LAKE SUPERIOR

STATION/POSITION TIME  TEMP    WIND        PRES    WAVE
                       AIR SEA DIR/SP/G            HT/PER
                 (UTC) (F)     (DEG/KT/KT) (MB)    (FT/S)
W MID LAKE BUOY  0650   39 35  150/  6/  8 1025.5R   0
DEVILS ISLAND    0700   51     130/  7/  7 1025.2R
PORT WING        0640   40      CALM  /  4 1024.4R
SAXON HARBOR     0600   41        CALM     1023.7S
$$

LMZ867-665-643>646-050800-
LAKE MICHIGAN

STATION/POSITION TIME  TEMP    WIND        PRES    WAVE
                       AIR SEA DIR/SP/G            HT/PER
                 (UTC) (F)     (DEG/KT/KT) (MB)    (FT/S)
CHAMBERS ISLAND  0600   49      70/  4/  7 1025.4S
NORTHPORT PIER   0600   44     330/  2/  2 1025.4R
SISTER BAY       0517   45        CALM       N/A
KEWAUNEE LAKESHO 0618   47      30/  8/ 11 1023.8R
SHEBOYGAN LAKESH 0700   48      10/ 11/ 14 1024.4R
PORT WASHINGTON  0600   53      10/  4/  7 1024.0
ATWATER BUOY     0600   48     340/  6/  6 1024.4R
MILWAUKEE LAKESH 0600   53      10/  3/  4   N/A
KENOSHA   LAKESH 0700   52     340/  9/ 10 1022.7R
$$

TC  - TEMPERATURE IN CELSIUS
VSB - VISIBILITY IN STATUTE MILES
WCI - WIND CHILL INDEX
HX  - HEAT INDEX




USA.gov is the U.S. government's official web portal to all federal, state and local government web resources and services.